SCP
0 0 0 0 0 0 0 0 0 0 0 0 0 0 0 0 0 0 0 0 0 0 0 0 0 0 0 0 0 0 0 0 0 0 0 0 0 0 0 0 0 0 0
0 0 0 0 0 0 0 0 0 0 0 0 0 0 0 0 0 0 0 0 0 0 0 0 0 0 0 0 0 0 0 0 0 0 0 0 0 0 0 0 0 0 0
0 0 0 0 0 0 0 0 0 0 0 0 0 0 0 0 0 0 0 0 0 0 0 0 0 0 0 0 0 0 0 0 0 0 0 0 0 0 0 0 0 0 0
0 0 0 0 0 0 0 0 0 0 0 0 0 0 0 0 0 0 0 0 0 0 0 0 0 0 0 0 0 0 0 0 0 0 0 0 0 0 0 0 0 0 0
0 0 0 0 0 0 0 0 0 0 0 0 0 0 0 0 0 0 0 0 0 0 0 0 0 0 0 0 0 0 0 0 0 0 0 0 0 0 0 0 0 0 0
0 0 0 0 0 0 0 0 0 0 0 0 0 0 0 0 0 0 0 0 0 0 0 0 0 0 0 0 0 0 0 0 0 0 0 0 0 0 0 0 0 0 0
0 0 0 0 -0 0 0 0 0 0 0 0 0 0 0 0 0 0 0 0 0 0 0 0 0 0 0 0 0 0 0 0 0 0 0 0 0 0 0 0 0 0 0
0 0 0 0 0 0 -0 -0 0 0 0 0 0 0 0 0 0 0 0 0 0 0 0 0 0 0 0 0 0 0 0 0 0 0 0 0 0 0 0 0 0 0 0
0 0 0 -0 -0 0 -0 -0 -0 0 0 0 0 0 0 0 0 0 0 0 0 0 0 0 0 0 0 0 0 0 0 0 0 0 0 0 0 0 0 0 0 0 0
0 0 0 -0 -0 0 -0 -0 -0 0 0 0 0 0 0 0 0 0 0 0 0 0 0 0 0 0 0 0 0 0 0 0 0 0 0 0 0 0 0 0 0 0 0
-0 -0 -0 -0 0 0 0 0 0 0 0 0 0 0 0 0 0 0 0 0 0 0 0 0 0 0 0 0 0 0 0 0 0 0 0 0 0 0 0 0 0 0 0
-0 -0 -0 0 0 0 0 0 0 0 0 0 0 0 0 0 0 0 0 0 0 0 0 0 0 0 0 0 0 0 0 0 0 0 0 0 0 0 0 0 0 0 0
-0 -0 -0 -0 0 0 0 0 0 0 0 0 0 0 0 0 0 0 0 0 0 0 0 0 0 0 0 0 0 0 0 0 0 0 0 0 0 0 0 0 0 0 0
-0 -0 -0 -0 -0 0 0 -0 0 0 0 0 0 0 0 0 0 0 0 0 0 0 0 0 0 0 0 0 0 0 0 0 0 0 0 0 0 0 0 0 0 0 0
0 0 0 -0 0 0 0 0 0 0 0 0 0 0 0 0 0 0 0 0 0 0 0 0 0 0 0 0 0 0 0 0 0 0 0 0 0 0 0 0 0 0 0
0 0 0 0 0 0 0 0 0 0 0 0 0 0 0 0 -0 -0 -0 -0 -0 -0 0 0 0 0 0 0 0 0 0 0 0 0 0 0 0 0 0 0 0 0 0
0 0 0 0 0 0 0 0 0 0 0 0 0 0 0 0 0 0 0 0 0 0 0 0 0 0 0 0 0 0 0 0 0 0 0 0 0 0 0 0 0 0 0
0 0 -0 0 0 -0 0 0 -0 -0 0 0 0 0 0 0 0 0 0 0 -0 -0 0 -0 -0 -0 0 0 0 -0 0 0 0 0 0 0 0 0 0 0 0 0 0
0 0 0 0 0 0 0 -0 -0 0 0 0 0 0 0 0 0 0 0 0 -0 -0 -0 0 0 -0 -0 -0 -0 -0 -0 0 0 0 0 0 0 0 0 0 0 0 0
-0 -0 -0 -0 -0 -0 -0 -0 -0 -0 0 0 0 0 0 0 0 0 0 0 0 0 0 -0 -0 -0 -0 -0 -0 0 0 0 0 0 0 0 0 0 0 0 0 0 0
-0 -0 -0 -0 -0 -0 -0 -0 -0 -0 -0 0 0 0 0 0 0 0 0 -0 -0 -0 -0 0 0 0 0 0 0 0 0 0 0 0 0 0 0 0 0 0 0 0 0
0 0 0 0 -0 -0 -0 -0 -0 -0 -0 -0 -0 -0 -0 0 0 0 -0 -0 0 0 0 0 0 0 0 0 0 0 0 0 0 0 0 0 0 0 0 0 0 0 0
0 0 0 0 0 0 0 0 -0 -0 0 0 0 0 0 -0 0 0 0 0 0 0 0 0 0 0 0 0 0 0 0 0 0 0 0 0 0 0 0 0 0 0 0
0 0 0 0 0 0 0 0 0 0 0 0 0 0 0 0 0 0 0 0 0 0 0 0 0 0 0 0 0 0 0 0 0 0 0 0 0 0 0 0 0 0 0
0 0 0 0 0 0 0 0 0 0 0 0 0 0 0 0 0 0 0 0 0 0 0 0 0 0 0 0 0 0 0 0 0 0 0 0 0 0 0 0 0 0 0
0 0 0 0 0 0 0 0 0 0 0 0 0 0 0 0 0 0 0 0 0 0 0 0 0 0 0 0 0 0 0 0 0 0 0 0 0 0 0 0 0 0 0
Wind_Speed_500mb
39 39 41 43 42 40 37 38 43 36 28 39 36 29 20 23 32 44 36 35 37 42 53 50 45 46 46 46 53 62 63 64 62 62 65 73 71 78 72 80 75 60 45
40 39 40 41 39 40 35 34 33 32 27 41 42 30 36 29 21 26 38 33 33 39 44 39 48 45 51 49 49 56 60 66 80 69 52 33 40 54 44 45 43 58 65
39 40 39 40 41 38 35 32 29 25 23 36 43 36 33 23 23 23 20 18 39 42 42 46 43 49 48 51 54 60 62 61 64 74 50 28 21 45 41 48 63 74 72
32 35 38 40 40 38 33 30 27 23 22 29 34 31 24 21 15 13 24 24 40 38 43 48 51 53 39 50 57 62 61 62 63 72 80 54 41 37 27 38 43 50 67
33 35 36 39 39 35 33 30 25 22 18 20 27 26 24 24 26 26 28 28 36 38 44 46 50 49 56 42 53 59 57 66 67 86 73 81 66 46 33 38 53 50 54
34 32 33 37 38 35 31 29 26 20 18 12 21 21 22 26 26 27 28 35 35 36 41 44 48 50 56 54 53 61 62 65 65 66 80 91 83 66 55 42 61 59 52
32 34 35 36 37 37 35 32 26 21 15 8 14 17 19 19 20 21 23 29 30 34 33 35 38 44 48 53 61 62 70 66 84 80 81 84 91 88 71 68 73 67 52
30 31 32 33 35 36 34 32 28 22 12 2 9 15 18 19 18 17 23 26 28 29 25 31 36 35 41 47 57 55 64 62 67 80 86 93 95 79 78 71 69 55 43
28 29 29 31 34 35 33 33 28 23 16 5 5 12 15 17 18 23 24 24 24 23 26 27 30 31 43 45 49 44 53 53 67 62 64 62 57 52 59 54 61 60 44
27 27 29 32 34 32 30 28 27 23 15 7 5 7 11 15 19 24 26 23 23 25 23 25 23 27 38 42 46 42 42 45 42 44 41 40 36 34 33 35 40 43 31
27 28 30 31 31 27 25 26 25 21 14 8 3 3 7 11 17 22 22 25 23 21 20 21 23 26 28 28 35 41 39 46 42 41 35 38 35 33 30 24 26 22 18
24 25 26 29 28 27 27 25 24 21 17 13 8 5 6 10 15 19 22 25 28 29 29 30 33 36 41 41 41 46 53 51 51 50 41 46 38 32 30 25 18 11 10
22 23 23 26 25 27 25 22 20 19 16 14 14 16 18 20 23 26 28 32 35 42 48 52 57 61 63 66 64 55 53 52 46 46 40 40 30 35 32 27 27 23 19
16 17 17 19 21 21 21 20 18 17 18 20 26 33 38 42 47 52 55 58 60 63 66 70 70 67 64 58 55 55 53 54 52 48 49 48 38 37 29 22 21 19 16
7 7 9 13 15 17 18 18 19 22 27 33 41 50 57 62 66 69 72 72 71 70 70 70 70 67 66 60 53 53 49 48 46 45 43 36 36 33 26 19 15 12 13
3 4 8 13 17 20 22 23 27 33 39 47 50 53 57 61 64 66 67 66 67 70 67 65 64 64 61 53 49 46 43 40 39 40 37 31 27 23 19 15 12 12 13
6 11 16 23 22 24 27 32 37 40 50 55 54 57 59 59 58 62 63 64 63 59 60 60 57 57 53 45 40 38 36 35 34 33 29 25 20 16 14 10 9 11 11
18 20 20 25 26 30 35 38 42 45 46 49 49 51 52 55 56 57 56 55 53 50 49 49 48 48 46 38 34 31 29 28 28 25 23 18 14 13 14 14 14 13 14
23 24 27 30 30 29 29 30 30 32 33 39 42 42 44 44 45 46 46 44 42 40 39 38 36 35 34 29 27 25 24 23 21 18 14 14 11 9 9 11 13 15 18
30 29 29 29 28 27 27 28 30 30 33 33 35 36 35 36 36 36 36 35 34 33 32 30 28 27 25 23 19 17 16 15 14 12 10 11 13 15 18 21 23 24 28
33 31 28 27 27 27 27 27 27 27 29 30 30 29 28 28 28 28 27 27 26 24 23 22 21 18 16 14 10 8 7 7 8 9 10 11 13 16 20 24 27 30 34
39 35 33 33 32 31 30 30 30 29 27 27 26 24 22 22 21 20 19 19 17 16 15 13 12 10 9 7 6 5 3 5 7 11 13 16 19 22 26 30 33 36 40
41 40 38 37 38 37 36 32 29 28 26 24 22 20 19 18 18 17 15 14 12 11 9 8 5 3 1 2 5 8 10 12 12 13 15 17 22 27 30 33 36 40 43
52 49 47 45 43 41 39 36 33 31 29 28 26 24 22 19 18 17 17 15 13 10 7 6 7 8 9 9 11 13 14 13 13 17 22 26 31 34 38 40 42 45 47
56 55 53 51 48 45 42 39 35 33 30 28 26 24 23 22 22 21 19 19 18 17 16 16 17 17 17 18 20 21 24 26 28 26 29 31 34 38 42 45 48 51 54
62 61 57 54 51 49 45 42 40 37 36 36 35 32 31 30 29 28 27 26 25 25 25 24 25 25 24 27 29 31 33 34 38 43 39 41 42 45 49 52 55 57 59
Wind_Direction_500mb
315 313 313 313 312 306 302 294 283 274 289 285 275 234 209 249 234 232 235 242 242 230 234 251 246 233 233 234 223 236 236 220 219 221 222 220 238 245 236 238 244 256 251
316 317 316 315 312 311 308 301 284 273 275 277 269 254 218 197 197 228 224 233 242 236 230 231 238 233 231 232 225 229 227 218 231 210 196 180 189 190 198 205 235 248 242
314 316 316 315 315 313 309 310 295 281 278 274 275 255 238 248 235 232 235 224 234 243 239 236 225 229 232 231 228 229 225 216 225 223 201 190 194 194 200 196 225 225 220
314 314 315 315 315 315 317 315 306 288 275 271 270 255 231 219 204 203 204 221 244 244 246 242 239 229 218 238 233 233 225 210 208 215 227 218 217 188 198 211 205 196 197
315 317 316 316 317 319 324 321 317 299 282 267 263 252 227 231 226 238 236 241 253 252 251 250 246 237 223 228 236 232 232 226 224 222 218 217 222 218 200 194 200 197 197
315 316 318 320 321 327 334 331 318 304 295 267 254 246 237 233 226 235 242 254 261 263 258 251 244 239 231 231 234 232 231 230 235 230 227 229 221 222 214 207 192 197 198
316 319 323 325 326 328 333 336 329 316 299 266 241 241 232 227 230 238 246 254 255 262 255 250 250 241 234 232 240 238 236 239 237 237 228 229 230 231 232 221 194 189 193
314 318 322 324 324 325 328 333 333 329 323 286 217 226 221 218 219 227 230 237 251 252 241 241 242 232 241 232 237 229 232 225 231 234 237 231 224 225 217 210 203 183 185
311 319 325 327 328 328 332 336 338 344 342 338 233 217 213 212 208 208 220 235 243 235 232 232 230 225 226 234 242 227 227 224 233 241 219 215 207 195 200 206 203 212 182
315 326 330 333 333 337 343 343 348 354 358 346 270 233 208 204 199 199 201 211 221 220 213 211 204 206 208 212 224 210 202 190 189 185 176 179 177 184 190 197 201 207 213
324 333 339 338 344 349 355 357 1 5 11 14 11 236 198 189 192 193 186 187 182 177 169 165 170 177 181 179 175 169 172 152 140 142 142 135 133 129 132 147 169 182 175
329 339 339 345 350 357 1 5 13 20 25 32 50 96 137 151 162 163 161 154 151 144 142 139 137 138 131 125 131 131 125 122 110 111 111 109 106 109 112 122 135 143 146
337 348 352 355 2 2 6 11 19 39 54 66 82 99 110 118 121 124 130 132 133 133 130 129 126 124 123 125 123 121 115 110 109 113 104 89 97 99 98 108 117 125 130
344 348 357 0 10 10 19 27 41 61 81 100 111 113 113 113 111 110 113 115 116 116 116 115 115 111 108 107 107 107 106 112 115 115 107 110 114 106 108 110 107 109 112
347 339 6 21 33 34 45 56 74 92 103 109 112 112 115 115 114 114 113 112 112 111 106 103 99 98 98 101 104 106 109 108 107 102 100 102 92 95 96 91 90 90 77
222 52 60 68 68 69 74 85 94 101 106 107 104 106 109 110 108 106 103 99 99 101 108 110 111 112 107 106 106 108 108 106 102 101 101 98 94 95 92 83 70 55 43
138 118 106 97 89 89 92 98 101 106 107 106 108 108 107 109 110 109 110 110 110 111 111 110 110 107 105 105 105 105 106 105 101 98 98 95 89 79 70 56 35 23 1
148 137 125 114 109 111 111 113 115 120 119 120 119 120 121 120 120 118 115 114 114 115 113 111 109 110 108 109 108 108 105 101 94 90 82 79 72 52 30 13 0 346 337
147 133 121 115 114 110 111 115 118 117 114 111 113 115 116 118 117 116 116 116 116 115 114 111 108 105 103 99 92 85 80 75 73 69 64 51 36 21 355 331 320 320 321
140 133 132 132 129 132 134 135 134 132 128 123 121 123 123 122 121 121 121 120 120 119 115 114 111 107 100 93 85 77 68 62 57 49 30 6 353 348 331 318 320 321 320
155 153 149 147 149 152 152 149 146 142 138 133 131 131 131 129 126 125 123 119 116 111 106 99 96 92 94 98 98 96 81 58 38 18 3 346 334 322 310 313 320 322 322
169 167 166 168 169 169 168 164 161 157 153 149 146 146 147 146 142 133 126 125 125 123 120 119 121 120 113 100 70 45 4 353 352 351 342 337 328 321 324 324 321 318 316
181 180 182 183 182 180 178 177 174 172 170 168 167 168 169 167 164 162 164 162 159 158 161 162 150 122 85 9 349 343 340 336 326 319 316 313 316 322 322 320 316 313 313
191 190 192 194 193 191 188 186 186 187 188 188 189 191 194 197 200 202 204 206 209 217 230 243 255 269 276 278 275 264 259 271 303 322 329 328 326 325 323 321 319 318 316
201 200 200 200 199 200 199 199 198 199 203 207 211 214 218 222 225 229 234 238 241 244 250 256 261 266 270 277 287 302 315 317 314 310 313 316 317 318 320 320 320 318 317
209 209 209 209 207 208 207 208 209 210 213 217 220 223 227 231 236 240 243 249 254 255 259 261 264 269 277 289 293 292 293 294 294 297 303 309 313 315 316 317 318 317 316
Wind_Speed_850mb
39 39 41 43 42 40 37 38 43 36 28 39 36 29 20 23 32 44 36 35 37 42 53 50 45 46 46 46 53 62 63 64 62 62 65 73 71 78 72 80 75 60 45
40 39 40 41 39 40 35 34 33 32 27 41 42 30 36 29 21 26 38 33 33 39 44 39 48 45 51 49 49 56 60 66 80 69 52 33 40 54 44 45 43 58 65
39 40 39 40 41 38 35 32 29 25 23 36 43 36 33 23 23 23 20 18 39 42 42 46 43 49 48 51 54 60 62 61 64 74 50 28 21 45 41 48 63 74 72
32 35 38 40 40 38 33 30 27 23 22 29 34 31 24 21 15 13 24 24 40 38 43 48 51 53 39 50 57 62 61 62 63 72 80 54 41 37 27 38 43 50 67
33 35 36 39 39 35 33 30 25 22 18 20 27 26 24 24 26 26 28 28 36 38 44 46 50 49 56 42 53 59 57 66 67 86 73 81 66 46 33 38 53 50 54
34 32 33 37 38 35 31 29 26 20 18 12 21 21 22 26 26 27 28 35 35 36 41 44 48 50 56 54 53 61 62 65 65 66 80 91 83 66 55 42 61 59 52
32 34 35 36 37 37 35 32 26 21 15 8 14 17 19 19 20 21 23 29 30 34 33 35 38 44 48 53 61 62 70 66 84 80 81 84 91 88 71 68 73 67 52
30 31 32 33 35 36 34 32 28 22 12 2 9 15 18 19 18 17 23 26 28 29 25 31 36 35 41 47 57 55 64 62 67 80 86 93 95 79 78 71 69 55 43
28 29 29 31 34 35 33 33 28 23 16 5 5 12 15 17 18 23 24 24 24 23 26 27 30 31 43 45 49 44 53 53 67 62 64 62 57 52 59 54 61 60 44
27 27 29 32 34 32 30 28 27 23 15 7 5 7 11 15 19 24 26 23 23 25 23 25 23 27 38 42 46 42 42 45 42 44 41 40 36 34 33 35 40 43 31
27 28 30 31 31 27 25 26 25 21 14 8 3 3 7 11 17 22 22 25 23 21 20 21 23 26 28 28 35 41 39 46 42 41 35 38 35 33 30 24 26 22 18
24 25 26 29 28 27 27 25 24 21 17 13 8 5 6 10 15 19 22 25 28 29 29 30 33 36 41 41 41 46 53 51 51 50 41 46 38 32 30 25 18 11 10
22 23 23 26 25 27 25 22 20 19 16 14 14 16 18 20 23 26 28 32 35 42 48 52 57 61 63 66 64 55 53 52 46 46 40 40 30 35 32 27 27 23 19
16 17 17 19 21 21 21 20 18 17 18 20 26 33 38 42 47 52 55 58 60 63 66 70 70 67 64 58 55 55 53 54 52 48 49 48 38 37 29 22 21 19 16
7 7 9 13 15 17 18 18 19 22 27 33 41 50 57 62 66 69 72 72 71 70 70 70 70 67 66 60 53 53 49 48 46 45 43 36 36 33 26 19 15 12 13
3 4 8 13 17 20 22 23 27 33 39 47 50 53 57 61 64 66 67 66 67 70 67 65 64 64 61 53 49 46 43 40 39 40 37 31 27 23 19 15 12 12 13
6 11 16 23 22 24 27 32 37 40 50 55 54 57 59 59 58 62 63 64 63 59 60 60 57 57 53 45 40 38 36 35 34 33 29 25 20 16 14 10 9 11 11
18 20 20 25 26 30 35 38 42 45 46 49 49 51 52 55 56 57 56 55 53 50 49 49 48 48 46 38 34 31 29 28 28 25 23 18 14 13 14 14 14 13 14
23 24 27 30 30 29 29 30 30 32 33 39 42 42 44 44 45 46 46 44 42 40 39 38 36 35 34 29 27 25 24 23 21 18 14 14 11 9 9 11 13 15 18
30 29 29 29 28 27 27 28 30 30 33 33 35 36 35 36 36 36 36 35 34 33 32 30 28 27 25 23 19 17 16 15 14 12 10 11 13 15 18 21 23 24 28
33 31 28 27 27 27 27 27 27 27 29 30 30 29 28 28 28 28 27 27 26 24 23 22 21 18 16 14 10 8 7 7 8 9 10 11 13 16 20 24 27 30 34
39 35 33 33 32 31 30 30 30 29 27 27 26 24 22 22 21 20 19 19 17 16 15 13 12 10 9 7 6 5 3 5 7 11 13 16 19 22 26 30 33 36 40
41 40 38 37 38 37 36 32 29 28 26 24 22 20 19 18 18 17 15 14 12 11 9 8 5 3 1 2 5 8 10 12 12 13 15 17 22 27 30 33 36 40 43
52 49 47 45 43 41 39 36 33 31 29 28 26 24 22 19 18 17 17 15 13 10 7 6 7 8 9 9 11 13 14 13 13 17 22 26 31 34 38 40 42 45 47
56 55 53 51 48 45 42 39 35 33 30 28 26 24 23 22 22 21 19 19 18 17 16 16 17 17 17 18 20 21 24 26 28 26 29 31 34 38 42 45 48 51 54
62 61 57 54 51 49 45 42 40 37 36 36 35 32 31 30 29 28 27 26 25 25 25 24 25 25 24 27 29 31 33 34 38 43 39 41 42 45 49 52 55 57 59
Wind_Direction_850mb
315 313 313 313 312 306 302 294 283 274 289 285 275 234 209 249 234 232 235 242 242 230 234 251 246 233 233 234 223 236 236 220 219 221 222 220 238 245 236 238 244 256 251
316 317 316 315 312 311 308 301 284 273 275 277 269 254 218 197 197 228 224 233 242 236 230 231 238 233 231 232 225 229 227 218 231 210 196 180 189 190 198 205 235 248 242
314 316 316 315 315 313 309 310 295 281 278 274 275 255 238 248 235 232 235 224 234 243 239 236 225 229 232 231 228 229 225 216 225 223 201 190 194 194 200 196 225 225 220
314 314 315 315 315 315 317 315 306 288 275 271 270 255 231 219 204 203 204 221 244 244 246 242 239 229 218 238 233 233 225 210 208 215 227 218 217 188 198 211 205 196 197
315 317 316 316 317 319 324 321 317 299 282 267 263 252 227 231 226 238 236 241 253 252 251 250 246 237 223 228 236 232 232 226 224 222 218 217 222 218 200 194 200 197 197
315 316 318 320 321 327 334 331 318 304 295 267 254 246 237 233 226 235 242 254 261 263 258 251 244 239 231 231 234 232 231 230 235 230 227 229 221 222 214 207 192 197 198
316 319 323 325 326 328 333 336 329 316 299 266 241 241 232 227 230 238 246 254 255 262 255 250 250 241 234 232 240 238 236 239 237 237 228 229 230 231 232 221 194 189 193
314 318 322 324 324 325 328 333 333 329 323 286 217 226 221 218 219 227 230 237 251 252 241 241 242 232 241 232 237 229 232 225 231 234 237 231 224 225 217 210 203 183 185
311 319 325 327 328 328 332 336 338 344 342 338 233 217 213 212 208 208 220 235 243 235 232 232 230 225 226 234 242 227 227 224 233 241 219 215 207 195 200 206 203 212 182
315 326 330 333 333 337 343 343 348 354 358 346 270 233 208 204 199 199 201 211 221 220 213 211 204 206 208 212 224 210 202 190 189 185 176 179 177 184 190 197 201 207 213
324 333 339 338 344 349 355 357 1 5 11 14 11 236 198 189 192 193 186 187 182 177 169 165 170 177 181 179 175 169 172 152 140 142 142 135 133 129 132 147 169 182 175
329 339 339 345 350 357 1 5 13 20 25 32 50 96 137 151 162 163 161 154 151 144 142 139 137 138 131 125 131 131 125 122 110 111 111 109 106 109 112 122 135 143 146
337 348 352 355 2 2 6 11 19 39 54 66 82 99 110 118 121 124 130 132 133 133 130 129 126 124 123 125 123 121 115 110 109 113 104 89 97 99 98 108 117 125 130
344 348 357 0 10 10 19 27 41 61 81 100 111 113 113 113 111 110 113 115 116 116 116 115 115 111 108 107 107 107 106 112 115 115 107 110 114 106 108 110 107 109 112
347 339 6 21 33 34 45 56 74 92 103 109 112 112 115 115 114 114 113 112 112 111 106 103 99 98 98 101 104 106 109 108 107 102 100 102 92 95 96 91 90 90 77
222 52 60 68 68 69 74 85 94 101 106 107 104 106 109 110 108 106 103 99 99 101 108 110 111 112 107 106 106 108 108 106 102 101 101 98 94 95 92 83 70 55 43
138 118 106 97 89 89 92 98 101 106 107 106 108 108 107 109 110 109 110 110 110 111 111 110 110 107 105 105 105 105 106 105 101 98 98 95 89 79 70 56 35 23 1
148 137 125 114 109 111 111 113 115 120 119 120 119 120 121 120 120 118 115 114 114 115 113 111 109 110 108 109 108 108 105 101 94 90 82 79 72 52 30 13 0 346 337
147 133 121 115 114 110 111 115 118 117 114 111 113 115 116 118 117 116 116 116 116 115 114 111 108 105 103 99 92 85 80 75 73 69 64 51 36 21 355 331 320 320 321
140 133 132 132 129 132 134 135 134 132 128 123 121 123 123 122 121 121 121 120 120 119 115 114 111 107 100 93 85 77 68 62 57 49 30 6 353 348 331 318 320 321 320
155 153 149 147 149 152 152 149 146 142 138 133 131 131 131 129 126 125 123 119 116 111 106 99 96 92 94 98 98 96 81 58 38 18 3 346 334 322 310 313 320 322 322
169 167 166 168 169 169 168 164 161 157 153 149 146 146 147 146 142 133 126 125 125 123 120 119 121 120 113 100 70 45 4 353 352 351 342 337 328 321 324 324 321 318 316
181 180 182 183 182 180 178 177 174 172 170 168 167 168 169 167 164 162 164 162 159 158 161 162 150 122 85 9 349 343 340 336 326 319 316 313 316 322 322 320 316 313 313
191 190 192 194 193 191 188 186 186 187 188 188 189 191 194 197 200 202 204 206 209 217 230 243 255 269 276 278 275 264 259 271 303 322 329 328 326 325 323 321 319 318 316
201 200 200 200 199 200 199 199 198 199 203 207 211 214 218 222 225 229 234 238 241 244 250 256 261 266 270 277 287 302 315 317 314 310 313 316 317 318 320 320 320 318 317
209 209 209 209 207 208 207 208 209 210 213 217 220 223 227 231 236 240 243 249 254 255 259 261 264 269 277 289 293 292 293 294 294 297 303 309 313 315 316 317 318 317 316